Time,TemperatureF,DewpointF,PressureIn,WindDirection,WindDirectionDegrees,WindSpeedMPH,WindSpeedGustMPH,Humidity,HourlyPrecipIn,Conditions,Clouds,dailyrainin,SoftwareType,DateUTC
2013-01-09 00:02:00,42.4,21.0,30.06,NE,41,1.0,3.0,42,0.00,,,0.00,weatherlink.com 1.10,2013-01-09 07:02:00,
2013-01-09 00:17:00,44.4,18.0,30.08,NW,308,0.0,4.0,35,0.00,,,0.00,weatherlink.com 1.10,2013-01-09 07:17:00,
2013-01-09 00:32:00,45.7,18.0,30.08,NNW,333,2.0,7.0,33,0.00,,,0.00,weatherlink.com 1.10,2013-01-09 07:32:00,
2013-01-09 01:02:00,45.0,18.0,30.08,West,265,1.0,6.0,34,0.00,,,0.00,weatherlink.com 1.10,2013-01-09 08:02:00,
2013-01-09 01:17:00,44.4,19.0,30.09,NNW,335,1.0,3.0,36,0.00,,,0.00,weatherlink.com 1.10,2013-01-09 08:17:00,
2013-01-09 01:32:00,44.1,20.0,30.08,West,277,1.0,3.0,38,0.00,,,0.00,weatherlink.com 1.10,2013-01-09 08:32:00,
2013-01-09 01:47:00,43.6,21.0,30.09,NNW,340,3.0,4.0,40,0.00,,,0.00,weatherlink.com 1.10,2013-01-09 08:47:00,
2013-01-09 02:17:00,43.6,23.0,30.09,West,281,2.0,4.0,44,0.00,,,0.00,weatherlink.com 1.10,2013-01-09 09:17:00,
2013-01-09 02:47:00,42.2,24.0,30.11,NW,319,0.0,2.0,49,0.00,,,0.00,weatherlink.com 1.10,2013-01-09 09:47:00,
2013-01-09 03:02:00,40.6,24.0,30.11,West,277,1.0,3.0,53,0.00,,,0.00,weatherlink.com 1.10,2013-01-09 10:02:00,
2013-01-09 03:17:00,41.0,22.0,30.11,NW,308,1.0,3.0,47,0.00,,,0.00,weatherlink.com 1.10,2013-01-09 10:17:00,
2013-01-09 03:32:00,41.2,21.0,30.12,WNW,288,0.0,4.0,44,0.00,,,0.00,weatherlink.com 1.10,2013-01-09 10:32:00,
2013-01-09 03:47:00,41.9,20.0,30.12,NW,325,2.0,5.0,41,0.00,,,0.00,weatherlink.com 1.10,2013-01-09 10:47:00,
2013-01-09 04:02:00,42.2,19.0,30.12,NNW,345,2.0,5.0,40,0.00,,,0.00,weatherlink.com 1.10,2013-01-09 11:02:00,
2013-01-09 04:17:00,42.1,19.0,30.13,NNW,330,2.0,6.0,39,0.00,,,0.00,weatherlink.com 1.10,2013-01-09 11:17:00,
2013-01-09 04:32:00,40.9,19.0,30.14,NNW,345,1.0,2.0,41,0.00,,,0.00,weatherlink.com 1.10,2013-01-09 11:32:00,
2013-01-09 04:47:00,40.3,19.0,30.15,North,358,2.0,3.0,42,0.00,,,0.00,weatherlink.com 1.10,2013-01-09 11:47:00,
2013-01-09 05:03:00,40.0,19.0,30.16,North,8,1.0,3.0,43,0.00,,,0.00,weatherlink.com 1.10,2013-01-09 12:03:00,
2013-01-09 05:18:00,38.6,19.0,30.17,North,6,0.0,1.0,45,0.00,,,0.00,weatherlink.com 1.10,2013-01-09 12:18:00,
2013-01-09 05:33:00,38.0,20.0,30.18,NNW,332,2.0,2.0,48,0.00,,,0.00,weatherlink.com 1.10,2013-01-09 12:33:00,
2013-01-09 05:48:00,38.3,20.0,30.19,WNW,285,1.0,5.0,48,0.00,,,0.00,weatherlink.com 1.10,2013-01-09 12:48:00,
2013-01-09 06:03:00,38.4,20.0,30.21,West,277,2.0,6.0,48,0.00,,,0.00,weatherlink.com 1.10,2013-01-09 13:03:00,
2013-01-09 06:18:00,38.7,20.0,30.21,WNW,287,3.0,7.0,48,0.00,,,0.00,weatherlink.com 1.10,2013-01-09 13:18:00,
2013-01-09 06:33:00,39.3,21.0,30.22,West,260,3.0,6.0,48,0.00,,,0.00,weatherlink.com 1.10,2013-01-09 13:33:00,
2013-01-09 06:48:00,40.1,21.0,30.21,West,278,4.0,8.0,46,0.00,,,0.00,weatherlink.com 1.10,2013-01-09 13:48:00,
2013-01-09 07:03:00,40.0,21.0,30.22,WNW,290,1.0,7.0,47,0.00,,,0.00,weatherlink.com 1.10,2013-01-09 14:03:00,
2013-01-09 07:18:00,40.6,21.0,30.23,North,5,4.0,6.0,46,0.00,,,0.00,weatherlink.com 1.10,2013-01-09 14:18:00,
2013-01-09 07:33:00,41.2,21.0,30.23,WNW,291,3.0,7.0,45,0.00,,,0.00,weatherlink.com 1.10,2013-01-09 14:33:00,
2013-01-09 07:48:00,41.9,22.0,30.24,NNW,330,1.0,7.0,45,0.00,,,0.00,weatherlink.com 1.10,2013-01-09 14:48:00,
2013-01-09 08:03:00,43.0,22.0,30.23,WNW,291,3.0,7.0,44,0.00,,,0.00,weatherlink.com 1.10,2013-01-09 15:03:00,
2013-01-09 08:18:00,43.9,22.0,30.23,West,276,4.0,11.0,42,0.00,,,0.00,weatherlink.com 1.10,2013-01-09 15:18:00,
2013-01-09 08:33:00,45.2,22.0,30.23,NNW,345,5.0,9.0,40,0.00,,,0.00,weatherlink.com 1.10,2013-01-09 15:33:00,
2013-01-09 08:48:00,46.5,23.0,30.23,NW,326,4.0,9.0,39,0.00,,,0.00,weatherlink.com 1.10,2013-01-09 15:48:00,
2013-01-09 09:03:00,47.5,23.0,30.24,NW,308,3.0,10.0,38,0.00,,,0.00,weatherlink.com 1.10,2013-01-09 16:03:00,
2013-01-09 09:18:00,47.9,23.0,30.24,NW,316,2.0,9.0,38,0.00,,,0.00,weatherlink.com 1.10,2013-01-09 16:18:00,
2013-01-09 09:33:00,47.7,22.0,30.24,North,354,7.0,12.0,37,0.00,,,0.00,weatherlink.com 1.10,2013-01-09 16:33:00,
2013-01-09 09:48:00,47.6,23.0,30.24,North,358,7.0,12.0,38,0.00,,,0.00,weatherlink.com 1.10,2013-01-09 16:48:00,
2013-01-09 10:03:00,48.5,23.0,30.24,North,352,5.0,12.0,37,0.00,,,0.00,weatherlink.com 1.10,2013-01-09 17:03:00,
2013-01-09 10:18:00,49.2,24.0,30.23,NW,326,8.0,11.0,37,0.00,,,0.00,weatherlink.com 1.10,2013-01-09 17:18:00,
2013-01-09 10:33:00,50.5,24.0,30.23,NNW,333,9.0,11.0,35,0.00,,,0.00,weatherlink.com 1.10,2013-01-09 17:33:00,
2013-01-09 10:48:00,50.6,24.0,30.23,North,349,8.0,9.0,35,0.00,,,0.00,weatherlink.com 1.10,2013-01-09 17:48:00,
2013-01-09 11:18:00,51.0,24.0,30.23,NE,53,3.0,8.0,35,0.00,,,0.00,weatherlink.com 1.10,2013-01-09 18:18:00,
2013-01-09 11:33:00,51.0,24.0,30.21,NNE,27,8.0,8.0,35,0.00,,,0.00,weatherlink.com 1.10,2013-01-09 18:33:00,
2013-01-09 11:48:00,51.2,24.0,30.20,NE,36,4.0,8.0,35,0.00,,,0.00,weatherlink.com 1.10,2013-01-09 18:48:00,
2013-01-09 12:03:00,51.8,25.0,30.18,North,1,3.0,7.0,35,0.00,,,0.00,weatherlink.com 1.10,2013-01-09 19:03:00,
2013-01-09 12:18:00,53.1,26.0,30.17,NNW,331,5.0,9.0,35,0.00,,,0.00,weatherlink.com 1.10,2013-01-09 19:18:00,
2013-01-09 12:33:00,54.0,26.0,30.16,NW,322,2.0,9.0,34,0.00,,,0.00,weatherlink.com 1.10,2013-01-09 19:33:00,
2013-01-09 12:48:00,54.5,26.0,30.15,NW,319,4.0,9.0,33,0.00,,,0.00,weatherlink.com 1.10,2013-01-09 19:48:00,
2013-01-09 13:03:00,55.3,26.0,30.13,North,359,5.0,9.0,32,0.00,,,0.00,weatherlink.com 1.10,2013-01-09 20:03:00,
2013-01-09 13:19:00,55.7,25.0,30.13,NNE,12,7.0,10.0,30,0.00,,,0.00,weatherlink.com 1.10,2013-01-09 20:19:00,
2013-01-09 13:34:00,55.5,24.0,30.13,NE,36,7.0,12.0,30,0.00,,,0.00,weatherlink.com 1.10,2013-01-09 20:34:00,
2013-01-09 13:49:00,55.1,23.0,30.12,ENE,64,3.0,11.0,29,0.00,,,0.00,weatherlink.com 1.10,2013-01-09 20:49:00,
2013-01-09 14:04:00,55.0,22.0,30.11,ENE,64,4.0,9.0,28,0.00,,,0.00,weatherlink.com 1.10,2013-01-09 21:04:00,
2013-01-09 14:19:00,55.4,22.0,30.11,NE,41,8.0,9.0,27,0.00,,,0.00,weatherlink.com 1.10,2013-01-09 21:19:00,
2013-01-09 14:34:00,55.7,22.0,30.11,NE,36,4.0,7.0,27,0.00,,,0.00,weatherlink.com 1.10,2013-01-09 21:34:00,
2013-01-09 14:49:00,55.5,22.0,30.11,NNE,27,3.0,7.0,27,0.00,,,0.00,weatherlink.com 1.10,2013-01-09 21:49:00,
2013-01-09 15:04:00,55.7,22.0,30.10,North,4,3.0,6.0,27,0.00,,,0.00,weatherlink.com 1.10,2013-01-09 22:04:00,
2013-01-09 15:19:00,56.3,23.0,30.10,NE,40,1.0,4.0,28,0.00,,,0.00,weatherlink.com 1.10,2013-01-09 22:19:00,
2013-01-09 15:34:00,56.4,23.0,30.09,NE,43,1.0,4.0,27,0.00,,,0.00,weatherlink.com 1.10,2013-01-09 22:34:00,
2013-01-09 15:49:00,57.5,24.0,30.08,NNE,27,2.0,4.0,28,0.00,,,0.00,weatherlink.com 1.10,2013-01-09 22:49:00,
2013-01-09 16:04:00,57.8,25.0,30.07,NNE,30,2.0,8.0,28,0.00,,,0.00,weatherlink.com 1.10,2013-01-09 23:04:00,
2013-01-09 16:23:00,58.0,25.0,30.07,NNE,13,4.0,6.0,28,0.00,,,0.00,weatherlink.com 1.10,2013-01-09 23:23:00,
2013-01-09 16:34:00,57.7,25.0,30.07,NNE,19,3.0,6.0,28,0.00,,,0.00,weatherlink.com 1.10,2013-01-09 23:34:00,
2013-01-09 16:49:00,57.4,26.0,30.07,North,4,4.0,6.0,30,0.00,,,0.00,weatherlink.com 1.10,2013-01-09 23:49:00,
2013-01-09 17:04:00,56.4,27.0,30.07,NNE,12,2.0,4.0,32,0.00,,,0.00,weatherlink.com 1.10,2013-01-10 00:04:00,
2013-01-09 17:19:00,55.1,25.0,30.08,SSE,165,2.0,3.0,31,0.00,,,0.00,weatherlink.com 1.10,2013-01-10 00:19:00,
2013-01-09 17:34:00,53.3,25.0,30.08,SSW,197,2.0,4.0,34,0.00,,,0.00,weatherlink.com 1.10,2013-01-10 00:34:00,
2013-01-09 17:49:00,52.1,25.0,30.08,SW,224,0.0,2.0,35,0.00,,,0.00,weatherlink.com 1.10,2013-01-10 00:49:00,
2013-01-09 18:04:00,51.1,25.0,30.09,West,274,2.0,4.0,37,0.00,,,0.00,weatherlink.com 1.10,2013-01-10 01:04:00,
2013-01-09 18:19:00,50.8,25.0,30.09,SW,226,3.0,4.0,37,0.00,,,0.00,weatherlink.com 1.10,2013-01-10 01:19:00,
2013-01-09 18:34:00,50.1,25.0,30.09,West,271,0.0,2.0,38,0.00,,,0.00,weatherlink.com 1.10,2013-01-10 01:34:00,
2013-01-09 18:49:00,49.2,26.0,30.08,West,280,2.0,2.0,41,0.00,,,0.00,weatherlink.com 1.10,2013-01-10 01:49:00,
2013-01-09 19:04:00,48.1,27.0,30.09,ESE,110,0.0,2.0,44,0.00,,,0.00,weatherlink.com 1.10,2013-01-10 02:04:00,
2013-01-09 19:19:00,47.7,27.0,30.09,West,270,0.0,1.0,45,0.00,,,0.00,weatherlink.com 1.10,2013-01-10 02:19:00,
2013-01-09 19:34:00,47.2,28.0,30.09,West,276,0.0,3.0,47,0.00,,,0.00,weatherlink.com 1.10,2013-01-10 02:34:00,
2013-01-09 19:49:00,46.4,28.0,30.09,West,276,0.0,1.0,50,0.00,,,0.00,weatherlink.com 1.10,2013-01-10 02:49:00,
2013-01-09 20:04:00,45.8,29.0,30.09,West,276,0.0,0.0,52,0.00,,,0.00,weatherlink.com 1.10,2013-01-10 03:04:00,
2013-01-09 20:19:00,45.5,29.0,30.09,West,276,0.0,1.0,53,0.00,,,0.00,weatherlink.com 1.10,2013-01-10 03:19:00,
2013-01-09 20:34:00,45.1,29.0,30.09,NE,42,0.0,2.0,53,0.00,,,0.00,weatherlink.com 1.10,2013-01-10 03:34:00,
2013-01-09 20:49:00,44.6,28.0,30.09,North,356,1.0,2.0,53,0.00,,,0.00,weatherlink.com 1.10,2013-01-10 03:49:00,
2013-01-09 21:04:00,43.7,28.0,30.09,WNW,284,0.0,2.0,55,0.00,,,0.00,weatherlink.com 1.10,2013-01-10 04:04:00,
2013-01-09 21:20:00,44.4,29.0,30.09,West,277,1.0,6.0,54,0.00,,,0.00,weatherlink.com 1.10,2013-01-10 04:20:00,
2013-01-09 21:49:00,43.7,28.0,30.07,SSW,204,0.0,2.0,55,0.00,,,0.00,weatherlink.com 1.10,2013-01-10 04:49:00,
2013-01-09 22:04:00,43.5,29.0,30.08,NE,56,4.0,6.0,56,0.00,,,0.00,weatherlink.com 1.10,2013-01-10 05:04:00,
2013-01-09 22:19:00,42.3,27.0,30.08,ESE,118,1.0,4.0,56,0.00,,,0.00,weatherlink.com 1.10,2013-01-10 05:19:00,
2013-01-09 22:49:00,40.6,28.0,30.07,ESE,115,0.0,2.0,60,0.00,,,0.00,weatherlink.com 1.10,2013-01-10 05:49:00,
2013-01-09 23:04:00,40.1,28.0,30.07,West,278,1.0,2.0,62,0.00,,,0.00,weatherlink.com 1.10,2013-01-10 06:04:00,
2013-01-09 23:19:00,39.7,28.0,30.07,NW,311,0.0,1.0,63,0.00,,,0.00,weatherlink.com 1.10,2013-01-10 06:19:00,
2013-01-09 23:34:00,38.7,28.0,30.06,WNW,283,0.0,2.0,65,0.00,,,0.00,weatherlink.com 1.10,2013-01-10 06:34:00,
2013-01-09 23:49:00,38.2,28.0,30.06,WNW,287,1.0,1.0,67,0.00,,,0.00,weatherlink.com 1.10,2013-01-10 06:49:00,